This is the latest recevied weather packets stored in our database for station/object K1BES. If no packets are shown the sender has not sent any weather packets the latest 10 day(s).
| Time | Temp. | Humidity | Pressure | Rain* | Wind** | Luminosity | Snow |
|---|---|---|---|---|---|---|---|
| 1777991993 | 27.78° C | 68% | 1017.6 hPa | 0 mm | - | 845 W/m² | - |
| 1777991691 | 27.78° C | 68% | 1017.7 hPa | 0 mm | - | 777 W/m² | - |
| 1777991388 | 27.78° C | 67% | 1017.7 hPa | 0 mm | - | 342 W/m² | - |
| 1777991085 | 27.22° C | 69% | 1017.7 hPa | 0 mm | - | 713 W/m² | - |
| 1777990782 | 27.22° C | 68% | 1017.7 hPa | 0 mm | - | 531 W/m² | - |
| 1777990479 | 27.22° C | 69% | 1017.3 hPa | 0 mm | - | 597 W/m² | - |
| 1777989873 | 27.22° C | 70% | 1017.6 hPa | 0 mm | - | 593 W/m² | - |
| 1777989569 | 27.22° C | 69% | 1017.3 hPa | 0 mm | - | 565 W/m² | - |
| 1777989266 | 26.67° C | 70% | 1017.4 hPa | 0 mm | - | 531 W/m² | - |
| 1777988963 | 26.67° C | 70% | 1017.5 hPa | 0 mm | - | 461 W/m² | - |
| 1777988659 | 26.11° C | 70% | 1017.5 hPa | 0 mm | - | 498 W/m² | - |
| 1777988355 | 26.11° C | 71% | 1017.2 hPa | 0 mm | - | 487 W/m² | - |
| 1777988053 | 26.11° C | 70% | 1017.3 hPa | 0 mm | - | 464 W/m² | - |
| 1777987748 | 26.11° C | 70% | 1017.2 hPa | 0 mm | - | 439 W/m² | - |
| 1777987446 | 26.11° C | 71% | 1017.3 hPa | 0 mm | - | 424 W/m² | - |
| 1777987143 | 26.11° C | 70% | 1017.4 hPa | 0 mm | - | 400 W/m² | - |
| 1777986840 | 26.11° C | 72% | 1017.2 hPa | 0 mm | - | 247 W/m² | - |
| 1777986538 | 25.56° C | 73% | 1017.3 hPa | 0 mm | - | 322 W/m² | - |
| 1777986235 | 25° C | 74% | 1017.4 hPa | 0 mm | - | 277 W/m² | - |
| 1777985932 | 25° C | 74% | 1017.2 hPa | 0 mm | - | 234 W/m² | - |
| 1777985630 | 24.44° C | 77% | 1017.3 hPa | 0 mm | - | 162 W/m² | - |
| 1777985326 | 23.89° C | 77% | 1017.3 hPa | 0 mm | - | 152 W/m² | - |
| 1777985023 | 23.89° C | 78% | 1017.4 hPa | 0 mm | - | 142 W/m² | - |
| 1777984719 | 23.33° C | 80% | 1017.4 hPa | 0 mm | - | 144 W/m² | - |
| 1777984416 | 22.78° C | 80% | 1017.2 hPa | 0 mm | - | 126 W/m² | - |
* Rain latest hour (hover to see other rain measurements)
** Current wind speed in m/s (hover to see current wind gust speed)